When you browse on this site, cookies collect data to enhance your experience and personalize the content and advertising you see.
Visit our Privacy Policy to learn more. By continuing to use the site, you agree to this use of cookies and data.
  • In Hungary
  • List of Countries
  • For 7 days
  • Water Temperature
  • Satellite Maps
  • Weather Map
  • News
  • Weather Widgets
  • user-avatar
    Login

    Hourly Weather Jastrzebniki

    Today, 25 May, Saturday

    Time Temperature Precipitation Wind Pressure Humidity
    00:00 +12°C° 0 mm 2 mps 735 mmHg 91%
    01:00 +10°C° 0 mm 2 mps 735 mmHg 92%
    02:00 +10°C° 0 mm 2 mps 735 mmHg 92%
    03:00 +10°C° 0 mm 2 mps 735 mmHg 93%
    04:00 +9°C° 0 mm 2 mps 736 mmHg 93%
    05:00 +12°C° 0 mm 2 mps 736 mmHg 88%
    06:00 +13°C° 0 mm 2 mps 736 mmHg 84%
    07:00 +14°C° 0 mm 3 mps 736 mmHg 80%
    08:00 +17°C° 0 mm 3 mps 736 mmHg 73%
    09:00 +18°C° 0 mm 3 mps 736 mmHg 65%
    10:00 +20°C° 0 mm 3 mps 736 mmHg 58%
    11:00 +20°C° 0 mm 3 mps 736 mmHg 56%
    12:00 +21°C° 0 mm 3 mps 736 mmHg 55%
    13:00 +21°C° 0 mm 3 mps 736 mmHg 54%
    14:00 +21°C° 0 mm 3 mps 736 mmHg 56%
    15:00 +21°C° 0 mm 3 mps 735 mmHg 58%
    16:00 +21°C° 0 mm 3 mps 735 mmHg 60%
    17:00 +20°C° 0.3 mm 3 mps 735 mmHg 67%
    18:00 +18°C° 0.3 mm 2 mps 735 mmHg 74%
    19:00 +17°C° 0.3 mm 2 mps 735 mmHg 81%
    20:00 +16°C° 0 mm 2 mps 736 mmHg 84%
    21:00 +15°C° 0 mm 1 mps 736 mmHg 86%
    22:00 +14°C° 0 mm 1 mps 736 mmHg 89%
    23:00 +13°C° 0 mm 1 mps 736 mmHg 89%

    Tomorrow, 26 May, Sunday

    Time Temperature Precipitation Wind Pressure Humidity
    00:00 +13°C° 0 mm 1 mps 737 mmHg 90%
    01:00 +13°C° 0 mm 1 mps 737 mmHg 91%
    02:00 +12°C° 0 mm 1 mps 737 mmHg 92%
    03:00 +12°C° 0 mm 1 mps 737 mmHg 92%
    04:00 +12°C° 0 mm 1 mps 736 mmHg 93%
    05:00 +13°C° 0 mm 2 mps 737 mmHg 90%
    06:00 +15°C° 0 mm 2 mps 737 mmHg 87%
    07:00 +17°C° 0 mm 2 mps 737 mmHg 84%
    08:00 +18°C° 0.3 mm 3 mps 737 mmHg 80%
    09:00 +19°C° 0.3 mm 3 mps 737 mmHg 76%
    10:00 +20°C° 0.3 mm 3 mps 737 mmHg 72%
    11:00 +20°C° 0.1 mm 3 mps 737 mmHg 69%
    12:00 +21°C° 0.1 mm 3 mps 736 mmHg 66%
    13:00 +21°C° 0.1 mm 3 mps 736 mmHg 63%
    14:00 +22°C° 0.1 mm 3 mps 736 mmHg 62%
    15:00 +22°C° 0.1 mm 3 mps 736 mmHg 62%
    16:00 +23°C° 0.1 mm 2 mps 736 mmHg 61%
    17:00 +21°C° 0.2 mm 2 mps 736 mmHg 67%
    18:00 +19°C° 0.2 mm 2 mps 736 mmHg 73%
    19:00 +19°C° 0.2 mm 1 mps 735 mmHg 79%
    20:00 +18°C° 0 mm 1 mps 736 mmHg 82%
    21:00 +16°C° 0 mm 1 mps 736 mmHg 84%
    22:00 +15°C° 0 mm 1 mps 736 mmHg 87%
    23:00 +15°C° 0 mm 1 mps 736 mmHg 89%

    Day after tomorrow, 27 May, Monday

    Time Temperature Precipitation Wind Pressure Humidity
    00:00 +14°C° 0 mm 2 mps 736 mmHg 91%
    01:00 +14°C° 0 mm 2 mps 736 mmHg 92%
    02:00 +14°C° 0 mm 2 mps 736 mmHg 93%
    03:00 +14°C° 0 mm 2 mps 735 mmHg 93%
    04:00 +13°C° 0 mm 2 mps 735 mmHg 93%
    05:00 +15°C° 0 mm 2 mps 735 mmHg 89%
    06:00 +17°C° 0 mm 2 mps 735 mmHg 85%
    07:00 +18°C° 0 mm 2 mps 736 mmHg 81%
    08:00 +20°C° 0.3 mm 3 mps 735 mmHg 76%
    09:00 +21°C° 0.3 mm 3 mps 735 mmHg 72%
    10:00 +22°C° 0.3 mm 4 mps 735 mmHg 67%
    11:00 +23°C° 0.4 mm 4 mps 735 mmHg 65%
    12:00 +25°C° 0.4 mm 4 mps 735 mmHg 63%
    13:00 +25°C° 0.4 mm 4 mps 735 mmHg 61%
    14:00 +25°C° 0.5 mm 3 mps 734 mmHg 62%
    15:00 +25°C° 0.5 mm 3 mps 734 mmHg 63%
    16:00 +25°C° 0.5 mm 2 mps 734 mmHg 64%
    17:00 +23°C° 0.4 mm 2 mps 734 mmHg 70%
    18:00 +21°C° 0.4 mm 2 mps 734 mmHg 75%
    19:00 +19°C° 0.4 mm 2 mps 734 mmHg 81%
    20:00 +18°C° 0 mm 2 mps 734 mmHg 82%
    21:00 +19°C° 0 mm 1 mps 734 mmHg 83%
    22:00 +18°C° 0 mm 1 mps 734 mmHg 84%
    23:00 +18°C° 0.4 mm 1 mps 733 mmHg 86%

    28 May, Tuesday

    Time Temperature Precipitation Wind Pressure Humidity
    00:00 +16°C° 0.4 mm 1 mps 733 mmHg 88%
    01:00 +16°C° 0.4 mm 1 mps 733 mmHg 90%
    02:00 +16°C° 1.2 mm 1 mps 733 mmHg 92%
    03:00 +16°C° 1.2 mm 1 mps 732 mmHg 93%
    04:00 +16°C° 1.2 mm 1 mps 732 mmHg 95%
    05:00 +18°C° 0.2 mm 1 mps 732 mmHg 94%
    06:00 +18°C° 0.2 mm 2 mps 732 mmHg 93%
    07:00 +18°C° 0.2 mm 2 mps 732 mmHg 92%
    08:00 +20°C° 0 mm 2 mps 732 mmHg 85%
    09:00 +21°C° 0 mm 2 mps 732 mmHg 79%
    10:00 +24°C° 0 mm 2 mps 731 mmHg 73%
    11:00 +24°C° 1 mm 2 mps 731 mmHg 73%
    12:00 +24°C° 1 mm 2 mps 731 mmHg 74%
    13:00 +24°C° 1 mm 2 mps 731 mmHg 74%
    14:00 +23°C° 3.3 mm 2 mps 730 mmHg 78%
    15:00 +21°C° 3.3 mm 2 mps 730 mmHg 82%
    16:00 +20°C° 3.3 mm 2 mps 730 mmHg 85%
    17:00 +19°C° 0.2 mm 2 mps 730 mmHg 87%
    18:00 +19°C° 0.2 mm 2 mps 730 mmHg 90%
    19:00 +18°C° 0.2 mm 2 mps 730 mmHg 92%
    20:00 +18°C° 1.2 mm 2 mps 730 mmHg 91%
    21:00 +17°C° 1.2 mm 2 mps 730 mmHg 91%
    22:00 +17°C° 1.2 mm 2 mps 730 mmHg 90%
    23:00 +16°C° 0 mm 2 mps 731 mmHg 92%

    29 May, Wednesday

    Time Temperature Precipitation Wind Pressure Humidity
    00:00 +16°C° 0 mm 3 mps 731 mmHg 93%
    01:00 +14°C° 0 mm 3 mps 731 mmHg 95%
    02:00 +14°C° 0.2 mm 3 mps 732 mmHg 95%
    03:00 +14°C° 0.2 mm 3 mps 732 mmHg 96%
    04:00 +14°C° 0.2 mm 3 mps 733 mmHg 96%
    05:00 +13°C° 0.8 mm 4 mps 733 mmHg 95%
    06:00 +11°C° 0.8 mm 6 mps 734 mmHg 94%
    07:00 +11°C° 0.8 mm 7 mps 735 mmHg 93%
    08:00 +10°C° 0.8 mm 6 mps 735 mmHg 93%
    09:00 +10°C° 0.8 mm 6 mps 736 mmHg 92%
    10:00 +10°C° 0.8 mm 6 mps 737 mmHg 92%
    11:00 +10°C° 0.1 mm 5 mps 738 mmHg 89%
    12:00 +12°C° 0.1 mm 5 mps 738 mmHg 86%
    13:00 +13°C° 0.1 mm 4 mps 739 mmHg 83%
    14:00 +13°C° 0 mm 4 mps 739 mmHg 82%
    15:00 +13°C° 0 mm 3 mps 740 mmHg 81%
    16:00 +14°C° 0 mm 3 mps 740 mmHg 79%
    17:00 +13°C° 0 mm 3 mps 740 mmHg 81%
    18:00 +13°C° 0 mm 3 mps 741 mmHg 82%
    19:00 +12°C° 0 mm 3 mps 741 mmHg 83%
    20:00 +11°C° 0 mm 3 mps 742 mmHg 85%
    21:00 +10°C° 0 mm 3 mps 742 mmHg 86%
    22:00 +9°C° 0 mm 3 mps 742 mmHg 88%
    23:00 +8°C° 0 mm 3 mps 743 mmHg 90%

    30 May, Thursday

    Time Temperature Precipitation Wind Pressure Humidity
    00:00 +8°C° 0 mm 3 mps 743 mmHg 91%
    01:00 +8°C° 0 mm 3 mps 743 mmHg 92%
    02:00 +7°C° 0 mm 3 mps 743 mmHg 92%
    03:00 +7°C° 0 mm 2 mps 744 mmHg 92%
    04:00 +6°C° 0 mm 2 mps 744 mmHg 92%
    05:00 +8°C° 0 mm 2 mps 744 mmHg 84%
    06:00 +9°C° 0 mm 2 mps 744 mmHg 77%
    07:00 +10°C° 0 mm 2 mps 744 mmHg 70%
    08:00 +12°C° 0 mm 2 mps 744 mmHg 64%
    09:00 +12°C° 0 mm 2 mps 744 mmHg 58%
    10:00 +13°C° 0 mm 2 mps 744 mmHg 52%
    11:00 +13°C° 0.2 mm 2 mps 744 mmHg 59%
    12:00 +12°C° 0.2 mm 2 mps 743 mmHg 66%
    13:00 +12°C° 0.2 mm 2 mps 743 mmHg 72%
    14:00 +12°C° 0 mm 2 mps 743 mmHg 73%
    15:00 +12°C° 0 mm 2 mps 742 mmHg 75%
    16:00 +12°C° 0 mm 1 mps 742 mmHg 76%
    17:00 +11°C° 0 mm 1 mps 742 mmHg 77%
    18:00 +11°C° 0 mm 1 mps 742 mmHg 78%
    19:00 +11°C° 0 mm 1 mps 742 mmHg 79%
    20:00 +11°C° 0 mm 1 mps 742 mmHg 75%
    21:00 +10°C° 0 mm 1 mps 742 mmHg 71%
    22:00 +10°C° 0 mm 1 mps 742 mmHg 68%
    23:00 +10°C° 0 mm 1 mps 742 mmHg 67%
    Show more